Wind_Speed
5 5 4 4 4 4 4 4 4 4 4 4 4 4 5 5 5 5 6 7 8 9 10 10 11 11 11 13 14 15 16 17 18 18 18 16 14 10 5 1 3 3 2 3 3 3 2 2 3 2 2 1 1 1 1 2 2 2 3 3 1 3 4 5 7 6 3 3 5 6 9 3 6 11 11 10 11 13 15 14 12 13 12 10 11 14 18 17
6 6 6 6 6 5 5 6 5 5 5 6 5 6 6 7 7 7 8 9 10 10 11 11 11 12 13 14 15 17 18 18 18 17 14 10 5 1 6 7 6 4 5 5 4 4 3 2 2 2 2 1 1 1 1 1 2 2 3 2 3 5 5 4 6 6 3 4 8 11 9 3 6 10 11 8 10 13 13 14 11 12 10 9 15 20 19 15
8 8 8 7 7 7 7 7 7 7 7 7 7 8 8 9 9 9 10 11 11 11 12 12 12 13 14 15 17 18 18 18 15 10 5 1 6 10 9 6 4 5 8 7 5 5 4 3 3 3 2 1 1 1 1 1 1 2 3 1 5 6 4 5 5 6 6 8 10 11 8 6 9 10 8 6 10 11 9 12 10 11 14 18 24 22 15 12
10 9 9 9 9 8 8 9 9 9 9 9 9 10 10 10 11 11 11 11 12 12 12 13 13 14 15 16 17 16 15 14 7 2 3 6 9 8 5 2 5 8 10 8 5 5 5 4 5 4 2 1 1 0 0 0 0 2 4 3 4 3 1 6 5 5 7 7 8 9 9 11 13 10 9 6 7 8 9 10 9 12 19 24 23 16 13 11
11 11 10 10 10 10 10 10 10 10 10 11 11 11 11 11 12 12 12 12 12 13 13 14 14 15 16 16 15 13 11 7 1 3 4 5 5 4 3 5 7 10 10 9 5 5 6 6 5 3 1 1 1 1 1 1 2 2 4 5 4 4 2 6 5 6 7 7 8 9 8 11 13 13 13 8 6 9 10 12 15 19 21 20 16 12 12 9
13 12 12 12 11 11 11 11 11 11 11 12 12 12 12 12 12 12 12 13 13 13 14 15 15 15 15 14 13 11 6 1 1 1 3 5 6 8 9 10 9 11 11 9 6 5 6 6 5 2 1 1 0 1 0 3 4 2 4 5 5 5 5 8 8 9 10 9 9 9 9 12 13 15 17 14 14 15 16 17 20 19 15 12 9 9 7 4
14 13 13 13 12 12 12 12 12 12 12 12 12 12 12 12 12 13 13 13 14 14 14 14 14 13 13 12 12 10 7 8 8 7 8 9 10 11 12 12 11 12 11 8 6 5 6 7 6 3 2 1 1 3 1 3 5 3 3 4 5 6 8 10 11 12 13 14 14 13 13 13 12 11 15 18 17 15 15 12 10 8 7 6 5 4 4 4
14 14 14 13 13 13 12 12 12 12 12 12 12 13 13 13 13 14 14 14 14 13 13 13 12 12 11 11 11 9 10 12 11 10 10 11 12 13 14 14 13 12 10 8 6 5 6 7 7 5 2 1 3 3 2 1 3 5 5 5 4 6 9 12 14 16 17 16 17 14 13 15 15 12 14 21 15 8 4 1 1 1 2 2 2 4 4 4
15 15 14 14 14 13 13 13 13 13 13 13 13 13 13 14 13 13 13 13 13 12 12 12 12 12 11 12 11 9 11 11 9 9 9 9 11 12 14 14 13 11 9 7 5 5 6 6 8 7 4 2 3 2 3 2 3 5 5 5 5 9 12 14 16 17 17 16 14 10 13 17 13 9 10 10 5 5 2 3 3 2 1 1 3 4 4 4
16 15 15 14 14 14 14 14 13 13 14 14 14 14 13 13 13 13 13 12 12 12 13 12 13 12 12 13 8 5 9 8 6 7 7 7 7 8 9 10 10 10 8 7 5 6 7 6 6 6 5 3 3 2 4 4 2 2 2 6 8 12 15 14 15 20 19 16 14 8 11 13 5 3 3 4 8 4 1 2 4 3 2 2 2 3 4 5
16 16 15 15 15 15 15 14 14 14 14 14 13 13 13 12 12 13 13 13 13 13 13 13 13 13 12 12 9 8 10 9 8 8 9 9 10 10 11 10 9 9 9 8 5 5 5 7 6 4 4 3 2 2 4 4 2 3 5 7 10 11 14 13 14 20 14 9 10 7 8 8 1 3 2 5 5 1 1 5 5 3 3 3 1 1 2 4
16 16 16 15 15 15 15 14 14 14 14 14 13 13 13 13 13 13 13 13 13 13 13 13 13 13 13 13 16 15 14 13 13 12 13 13 14 14 12 11 10 9 8 7 6 6 5 7 8 6 5 3 2 1 3 3 2 4 5 5 9 9 11 11 8 9 4 3 5 3 4 6 3 5 3 5 2 2 4 7 6 4 4 3 2 1 0 2
17 17 16 16 16 15 15 15 15 14 14 14 13 13 13 13 13 13 13 13 13 13 13 13 12 13 12 13 17 17 14 14 14 14 14 14 13 13 11 11 10 9 9 8 9 9 8 8 10 10 7 4 3 2 2 0 2 4 2 1 6 7 7 6 0 1 0 3 3 4 3 7 7 5 6 7 2 2 4 7 6 5 4 3 3 1 1 0
17 17 17 16 16 16 15 15 15 15 14 14 13 13 13 13 12 13 13 13 13 13 13 12 12 12 11 13 16 16 15 15 14 14 14 14 14 12 11 10 10 10 10 10 10 9 8 7 8 9 7 5 3 2 1 4 3 3 2 2 3 2 5 6 2 1 2 3 5 6 2 7 9 2 9 9 4 3 4 8 5 5 4 3 4 2 2 1
17 17 17 17 17 16 15 15 15 15 15 14 13 13 13 12 12 12 12 13 13 12 13 12 12 11 11 14 16 15 14 13 12 12 12 13 13 12 11 10 11 10 10 10 8 6 5 5 7 6 4 5 3 1 2 5 3 2 2 3 2 2 5 10 7 4 4 2 6 6 1 6 10 1 8 13 9 3 5 8 5 6 5 4 4 3 3 3
18 18 18 17 16 16 15 16 16 15 15 14 13 13 13 12 12 12 12 13 12 13 12 11 11 9 7 11 13 12 12 11 10 10 10 10 11 11 10 9 8 8 8 8 7 5 5 5 5 3 2 3 2 3 3 4 4 3 0 4 4 2 3 7 5 2 5 1 3 2 2 4 6 4 5 15 10 3 7 9 7 7 6 5 5 4 4 4
18 18 17 17 16 16 16 16 16 15 14 13 12 12 12 12 12 12 12 12 12 13 12 10 9 7 9 12 12 11 10 9 8 9 9 9 9 10 9 8 7 7 7 7 6 6 6 6 4 2 0 1 3 4 3 3 4 3 0 2 4 4 2 3 5 3 2 2 1 1 1 6 8 8 8 17 9 4 10 10 9 9 7 7 6 5 5 5
18 18 17 17 17 16 15 16 16 14 13 11 11 11 11 11 12 12 13 13 12 10 10 10 7 4 8 12 10 9 9 9 10 9 9 9 9 8 8 7 6 7 6 5 6 6 6 4 3 1 2 2 2 5 2 5 6 4 3 2 3 3 3 4 5 3 4 3 1 1 3 8 11 12 12 17 8 6 11 11 10 9 8 8 7 7 7 7
18 18 17 17 16 15 15 15 15 13 12 11 11 10 11 12 12 13 14 14 12 7 5 8 9 3 3 6 6 5 5 7 8 7 8 9 9 9 7 6 5 7 7 4 4 6 6 3 3 1 1 3 5 7 9 9 7 6 5 4 4 4 4 5 6 4 2 4 4 5 7 8 10 10 10 14 8 9 12 11 10 10 9 9 9 9 9 9
18 17 16 16 15 14 14 15 14 13 11 10 10 9 9 8 7 8 11 14 15 13 12 11 11 11 11 10 8 6 6 7 7 8 9 8 9 8 7 6 6 6 4 3 3 3 5 3 2 5 6 7 8 10 10 5 2 3 3 4 4 4 5 5 6 5 0 1 6 7 6 7 8 6 8 8 6 9 10 10 10 10 11 11 11 12 13 13
16 16 15 14 14 13 14 14 13 13 12 10 9 8 7 5 3 4 6 11 15 16 17 18 17 19 20 18 14 10 10 9 9 11 10 10 9 7 7 7 5 3 1 3 3 2 4 4 5 9 9 6 5 7 6 4 3 3 4 5 4 4 6 6 5 5 1 2 6 5 4 8 6 3 7 5 5 5 6 9 10 11 12 13 14 14 15 15
16 15 14 13 13 12 13 14 13 13 12 10 9 9 9 8 8 9 8 9 15 18 18 18 21 24 24 23 22 19 13 9 10 13 11 11 12 9 7 6 4 2 1 3 3 1 1 3 9 12 6 0 0 2 3 5 5 5 3 2 4 4 4 6 5 4 1 3 5 4 4 8 5 1 4 5 5 4 5 9 10 13 14 14 15 15 16 17
16 14 14 13 12 12 13 13 14 13 12 11 10 9 9 9 8 9 8 7 12 18 18 19 22 25 26 25 25 23 18 13 12 14 13 13 14 11 8 7 4 3 2 3 4 3 2 5 10 11 4 2 4 1 4 3 3 4 3 2 6 3 0 4 5 4 1 2 3 2 3 6 3 1 3 5 6 8 8 9 11 12 13 14 14 15 17 18
15 15 14 13 12 12 13 14 14 13 13 12 10 9 8 7 6 6 7 5 7 11 15 19 20 22 24 22 20 18 18 16 12 10 14 16 15 10 7 7 5 3 3 6 7 5 6 7 4 2 5 6 6 3 4 5 3 2 5 6 6 4 5 7 4 4 3 3 1 1 4 5 4 3 1 4 6 8 8 9 10 10 12 13 14 16 17 18
16 15 14 14 13 13 14 15 15 14 13 12 10 9 7 5 3 4 4 3 4 6 9 13 14 15 17 16 15 13 11 13 13 9 11 17 17 9 5 7 5 4 6 5 4 5 7 9 3 3 2 5 5 5 5 6 3 3 5 10 10 8 8 7 3 5 4 4 3 2 3 4 4 3 2 2 3 4 4 6 8 9 11 12 14 15 16 18
17 16 15 14 14 14 15 15 15 15 13 12 10 9 7 4 1 2 3 2 4 4 3 6 7 6 8 8 9 9 4 5 11 13 12 16 19 11 4 4 3 3 5 5 2 3 4 4 1 3 4 5 5 6 4 6 4 3 5 8 10 8 7 5 1 2 0 3 2 2 2 4 6 3 1 3 3 2 1 3 5 7 9 11 13 14 15 18
18 16 15 15 15 16 16 14 14 14 12 12 11 9 7 5 4 2 3 3 5 4 6 5 5 5 5 7 11 11 3 2 6 10 13 16 16 11 6 3 2 2 4 5 0 2 2 2 4 3 4 5 5 5 5 7 6 3 4 4 6 7 6 4 4 4 3 2 4 3 3 3 6 3 1 3 4 1 2 2 3 6 8 10 12 13 15 17
19 17 16 16 17 18 18 15 14 14 13 11 10 10 8 6 6 3 3 2 3 4 5 4 6 5 6 11 14 8 2 4 5 5 12 15 13 9 5 5 6 4 3 5 3 3 2 1 2 5 4 3 5 5 7 9 5 5 3 5 5 5 5 4 5 3 2 1 4 4 2 2 6 3 2 2 3 5 6 5 4 6 9 11 12 13 15 17
21 19 19 19 19 20 20 18 17 16 15 12 11 12 10 10 7 5 3 4 1 4 3 5 7 5 8 12 9 3 3 3 2 5 10 12 11 5 2 6 7 5 2 3 4 4 0 2 4 7 4 5 5 2 6 8 4 4 5 6 5 5 4 4 4 3 1 1 4 6 4 3 5 3 1 1 3 6 5 4 5 9 11 11 12 14 15 17
23 23 22 21 21 22 22 23 21 18 16 14 13 13 14 11 6 3 4 5 1 3 3 5 5 4 8 8 2 0 2 1 4 8 8 6 8 4 4 5 5 5 1 3 2 4 1 1 3 4 4 5 4 2 2 4 3 6 6 5 5 5 4 3 2 3 2 3 6 8 7 5 4 4 3 4 3 5 7 6 7 11 15 15 15 16 16 17
26 25 25 25 26 25 24 26 24 19 18 17 15 17 16 8 3 3 7 2 2 1 4 3 1 3 7 5 1 2 2 1 4 8 4 3 5 3 5 4 3 4 2 4 3 4 3 1 2 3 5 5 6 4 3 2 4 5 3 4 3 3 3 4 4 3 1 5 5 4 1 3 5 5 4 5 4 6 8 10 11 14 18 20 19 18 17 17
28 28 27 27 28 27 26 26 22 20 19 17 18 20 14 3 1 5 4 2 1 2 4 2 0 3 4 2 1 3 2 1 2 4 3 2 4 4 3 4 4 2 2 3 2 4 2 4 2 1 4 6 5 4 3 4 4 4 3 5 3 3 3 3 3 1 3 5 3 2 2 1 6 6 5 6 5 5 7 12 19 22 24 24 22 20 19 18
30 29 28 28 27 27 28 26 21 20 20 18 19 16 8 2 5 5 3 1 1 1 3 3 2 4 5 2 0 2 2 1 3 2 1 2 2 3 3 2 5 3 1 3 1 2 3 5 1 2 2 6 7 4 2 0 1 4 4 4 3 2 2 2 3 2 4 4 2 2 1 2 4 4 3 5 4 5 6 10 21 28 28 28 26 22 20 19
31 29 29 28 26 26 27 26 22 20 21 23 18 9 4 4 3 3 5 4 0 1 2 3 4 4 5 3 3 3 2 1 3 3 2 3 2 3 3 3 3 3 3 3 2 2 1 4 2 4 1 5 7 4 5 5 3 4 4 5 4 4 4 3 3 3 4 4 3 2 1 2 3 2 3 5 5 6 5 8 17 23 25 27 26 23 22 21
32 30 28 26 25 26 26 27 25 20 23 25 14 4 6 6 1 2 5 4 1 1 2 3 5 5 2 1 2 2 3 1 3 4 1 2 3 3 3 4 5 4 4 3 2 2 2 4 5 2 0 5 4 2 5 6 2 2 3 4 2 4 5 2 2 4 2 3 3 2 3 4 4 1 2 3 3 3 3 11 18 20 22 25 25 24 24 23
30 28 27 26 27 27 26 28 26 22 25 21 8 3 7 4 2 3 3 3 3 5 4 2 3 4 2 1 1 2 2 1 3 3 1 2 3 4 4 4 6 8 5 4 2 1 2 4 5 2 1 2 2 2 3 3 2 1 2 3 4 3 4 1 1 2 3 2 4 1 3 4 1 1 3 3 3 4 4 11 18 21 23 24 26 26 26 25
30 28 29 30 29 27 27 28 25 25 28 18 6 5 4 1 2 2 1 2 2 4 7 3 1 3 3 1 1 2 2 2 3 3 2 3 3 4 4 3 5 10 9 4 2 2 3 3 5 1 1 2 2 3 4 3 3 4 2 4 2 1 3 2 1 2 2 3 4 0 3 5 2 2 3 3 1 1 2 7 13 18 22 25 28 29 29 27
31 30 32 32 29 26 26 26 25 29 25 11 7 8 3 1 1 1 2 1 2 3 5 3 2 2 3 2 2 2 3 3 3 3 3 2 2 4 4 3 3 6 9 5 1 1 3 1 5 1 2 1 3 3 3 4 3 4 3 2 2 2 1 2 1 1 2 4 4 3 4 4 4 4 2 3 7 7 5 6 9 16 24 28 31 33 31 29
34 29 26 30 32 29 26 26 28 28 17 5 7 8 1 0 3 1 1 0 1 3 3 2 1 2 2 3 2 2 2 3 4 3 2 1 2 3 2 2 2 1 4 6 3 1 3 1 4 2 0 1 2 3 2 2 2 3 1 1 2 2 2 2 2 2 3 4 5 5 5 4 5 5 6 9 11 10 10 9 11 18 28 33 36 37 35 32
35 21 12 23 31 29 27 26 24 19 7 2 5 4 1 0 3 2 0 1 2 3 1 1 2 2 2 2 2 2 1 2 4 3 2 2 1 2 1 1 3 1 0 4 4 0 2 1 2 3 3 0 1 2 6 6 2 2 2 1 1 1 1 1 1 2 2 2 3 4 7 7 4 3 6 8 7 10 14 13 13 22 31 35 37 38 37 33
31 12 5 18 25 25 25 19 13 8 2 1 2 2 1 1 1 2 2 1 2 4 3 3 3 3 3 2 2 3 2 2 3 2 2 2 1 1 1 1 3 3 3 4 2 2 1 2 2 2 1 2 5 5 4 6 5 5 5 4 4 4 2 2 4 1 2 2 3 4 8 8 4 2 4 4 4 9 16 15 14 23 31 33 34 35 35 33
20 6 5 17 22 25 24 12 5 6 3 2 3 3 3 2 1 1 2 1 2 2 3 3 2 2 3 3 2 2 3 2 2 2 2 3 3 2 2 2 3 4 4 2 2 2 2 3 2 4 4 5 6 2 1 3 4 4 3 3 3 4 4 4 6 3 1 2 1 1 6 7 3 3 4 5 6 9 16 17 14 18 26 29 30 31 33 32
10 3 7 19 26 29 22 6 3 5 3 3 5 5 5 3 2 1 0 1 1 1 2 1 2 3 2 2 3 2 3 2 3 4 2 3 4 3 4 6 4 3 2 0 1 1 3 2 1 4 4 2 2 2 3 3 4 2 3 2 3 3 4 5 5 3 2 4 2 1 6 6 1 1 3 4 6 7 13 18 17 16 21 25 28 31 33 33
5 3 6 17 27 28 15 2 3 5 3 5 5 4 5 4 3 3 2 3 3 2 2 1 2 4 3 2 3 3 2 2 2 3 3 3 3 2 4 8 6 4 3 2 2 2 1 0 1 1 4 4 4 2 2 4 1 2 3 1 2 4 3 1 0 1 2 8 7 5 8 7 1 1 2 3 1 2 9 16 19 19 21 27 31 33 34 34
4 3 3 12 22 21 8 1 2 3 3 5 4 4 4 2 5 10 7 5 7 5 3 2 2 3 2 2 3 2 3 2 2 2 2 3 2 2 4 7 7 5 4 4 8 7 3 2 2 2 5 7 7 5 2 1 1 1 2 2 3 6 7 3 2 3 7 9 8 8 9 5 2 2 3 3 2 3 6 14 20 23 25 29 33 35 34 34
3 1 1 5 12 12 7 4 1 2 3 5 3 3 7 4 3 10 11 8 10 9 4 2 4 4 2 3 3 3 5 4 3 3 2 3 3 2 2 5 5 4 3 6 10 8 3 2 5 7 9 10 10 9 4 3 1 2 4 5 6 8 9 7 5 7 7 5 7 10 7 2 3 3 1 2 2 3 6 11 16 20 23 27 32 35 34 33
2 1 2 2 3 6 6 6 3 2 3 6 4 3 9 9 3 6 10 8 9 9 3 1 4 3 2 5 4 4 5 5 5 5 4 3 2 3 1 2 3 3 3 6 8 6 2 3 8 10 13 14 13 10 3 3 4 7 7 8 9 9 8 9 11 9 4 4 10 10 3 3 6 6 3 5 5 5 7 11 15 19 23 27 31 34 33 32
3 2 3 4 2 2 4 5 5 4 2 4 4 2 6 10 7 6 7 4 4 8 5 2 6 9 8 8 6 3 5 5 6 6 4 3 2 2 2 2 2 4 4 3 4 4 3 6 9 8 11 14 12 8 4 4 5 6 7 10 11 11 12 14 14 10 7 7 11 6 5 5 7 5 4 7 9 8 10 14 17 20 22 24 27 30 30 29
7 3 3 6 4 0 1 4 7 7 6 4 3 3 6 10 9 5 4 2 2 7 9 6 8 11 10 8 7 5 7 7 6 5 4 4 4 3 2 3 1 4 5 3 1 3 3 5 6 5 8 11 10 6 5 5 5 7 9 12 13 14 12 11 11 9 8 9 10 5 5 8 8 5 5 6 8 10 10 11 14 18 21 21 22 25 25 25
10 7 5 5 4 1 1 3 6 6 6 5 5 7 8 9 8 4 3 6 5 4 8 12 10 7 8 8 8 10 12 9 6 5 5 5 4 3 3 4 2 3 3 2 0 2 3 2 1 2 4 9 8 4 5 7 8 9 12 16 17 13 6 5 8 7 5 8 9 7 7 9 6 5 6 5 5 7 9 11 15 19 21 19 19 21 23 24
14 12 8 5 2 3 3 2 4 4 4 6 7 8 7 9 10 6 3 10 12 7 7 13 10 4 5 8 10 14 13 8 6 8 8 8 6 5 4 4 5 5 3 2 1 2 4 2 1 2 4 8 5 5 7 7 5 7 14 19 18 11 6 6 6 6 7 8 8 7 7 7 3 4 5 5 6 9 13 16 17 18 19 20 20 22 22 21
18 14 12 6 2 4 5 2 3 4 5 7 9 9 8 8 9 9 5 9 13 11 9 12 11 5 4 7 11 14 12 7 8 9 7 8 9 7 7 7 7 7 5 4 2 2 4 3 1 2 5 6 3 4 5 4 2 6 12 15 14 13 11 7 3 5 9 8 6 6 6 4 2 5 4 4 7 11 15 18 18 19 20 21 22 22 20 20
Wind_Direction
253 252 251 251 248 249 249 252 251 252 257 258 263 265 268 273 276 279 281 285 285 287 290 292 296 300 304 307 309 311 312 314 313 312 309 307 303 296 285 200 118 93 36 345 331 322 311 290 251 254 268 273 325 12 62 42 90 72 85 95 282 199 200 189 184 193 177 278 289 325 344 334 300 318 321 313 298 297 299 293 290 286 289 297 309 321 320 318
248 249 250 252 252 254 254 257 258 259 262 263 267 269 272 277 278 281 281 284 285 286 288 290 295 298 300 304 306 309 313 315 314 312 311 312 310 152 125 111 92 54 11 346 320 302 290 270 246 250 268 260 352 34 100 58 81 79 103 108 239 201 211 204 190 202 194 298 299 314 325 300 289 307 319 314 297 312 312 302 304 303 308 314 315 322 322 319
246 246 248 249 250 252 252 255 258 257 259 262 265 268 271 276 277 279 281 283 285 286 289 291 293 295 298 301 305 310 315 318 318 319 326 57 121 125 119 98 54 9 1 347 312 286 266 234 222 233 260 278 15 35 103 82 90 97 104 141 246 215 237 252 232 236 260 297 302 311 316 299 301 304 305 295 299 308 293 296 307 305 313 316 318 324 321 318
245 245 246 247 248 249 251 254 256 258 260 263 265 267 269 274 276 278 281 282 285 287 288 291 293 295 297 301 306 311 320 324 325 32 103 129 134 135 128 31 345 347 352 344 313 275 258 228 222 243 265 308 9 334 172 207 194 151 146 187 224 178 243 268 268 283 289 299 292 300 312 307 313 312 289 289 314 298 282 304 312 306 311 314 318 322 315 315
243 244 245 246 249 249 253 254 257 260 261 265 266 268 271 274 276 279 282 283 285 287 289 292 293 295 298 301 305 311 327 343 30 111 138 159 166 194 254 300 316 333 339 335 313 267 249 230 232 256 276 322 22 47 256 204 155 174 211 227 216 162 221 283 305 316 309 309 294 299 308 303 311 305 287 278 268 275 294 312 307 305 308 310 317 317 314 314
243 244 244 247 249 249 253 255 258 261 263 266 267 269 273 274 277 279 281 284 286 288 289 291 293 295 297 300 302 307 317 316 283 248 209 226 248 256 273 287 301 321 323 324 311 266 243 231 240 242 148 20 207 196 214 179 175 220 262 258 252 224 243 284 300 306 306 303 294 295 295 298 306 301 295 279 260 278 296 299 297 301 306 311 322 320 324 335
243 245 246 248 250 251 254 256 259 262 264 266 268 271 273 275 278 280 283 285 286 288 290 291 293 293 296 299 300 301 281 264 278 271 251 255 262 267 275 281 293 308 309 312 303 255 237 232 230 209 132 38 228 208 182 181 185 194 270 281 282 264 257 284 299 303 303 295 293 295 289 290 292 295 301 288 284 303 304 298 297 301 314 322 338 354 25 38
244 246 247 249 251 253 254 256 259 262 264 266 269 271 273 276 278 281 284 285 286 287 288 289 290 291 295 297 299 299 279 275 282 272 260 255 257 264 271 277 287 295 294 297 291 244 237 236 227 215 176 208 208 198 174 211 207 186 239 279 294 282 280 295 300 300 300 296 297 295 279 277 280 281 288 289 302 336 322 323 32 318 319 331 32 42 45 37
243 245 245 248 249 251 253 255 258 260 263 265 268 271 273 277 279 281 282 282 284 284 285 287 287 289 291 291 298 299 285 285 284 267 261 257 258 264 269 276 278 278 278 283 281 247 239 235 232 230 230 232 201 205 162 167 259 202 222 277 293 295 298 301 299 298 298 295 294 289 280 283 287 282 283 296 346 62 82 90 106 143 155 113 49 24 14 4
242 243 243 245 246 249 251 253 257 259 262 264 266 270 272 275 276 278 279 280 281 282 284 285 285 288 286 289 292 283 285 288 273 258 257 255 258 265 273 278 274 269 266 266 271 261 246 237 246 236 240 250 182 189 163 164 257 246 282 294 285 292 298 298 296 293 292 289 281 258 272 286 287 266 268 63 76 86 45 105 137 152 138 95 47 356 347 337
242 244 244 245 246 247 250 252 255 257 260 262 264 268 270 273 275 276 278 280 280 281 282 282 286 286 285 287 264 249 278 283 268 264 261 259 263 271 276 273 270 267 259 258 257 257 250 241 241 219 223 225 165 196 205 208 267 326 334 309 292 305 305 292 284 287 287 287 275 231 258 288 259 220 175 83 64 65 180 138 141 135 104 91 59 356 335 322
243 245 246 246 247 248 250 251 254 256 259 262 264 268 270 273 275 277 278 279 280 280 281 282 285 284 286 282 264 263 281 279 271 269 265 266 269 272 273 266 262 259 253 253 251 260 268 249 234 221 218 187 156 213 212 217 299 321 353 323 302 334 322 290 275 286 267 249 276 201 276 307 239 219 92 61 58 123 129 127 128 116 104 106 99 75 346 318
244 245 246 245 246 248 250 251 253 256 258 261 265 268 271 273 274 276 276 277 278 278 280 282 282 285 285 277 273 278 281 276 272 271 268 268 269 269 267 259 252 245 243 252 265 270 267 252 234 227 228 203 187 199 207 26 357 303 5 33 314 345 323 291 197 347 260 238 231 139 278 290 261 249 66 58 76 90 93 108 110 111 109 111 115 112 108 360
244 245 245 244 245 247 249 251 253 255 258 261 264 266 269 270 271 271 272 273 275 275 277 279 281 284 278 271 278 282 276 274 272 268 267 266 265 264 259 251 245 245 252 261 267 265 254 244 228 222 224 221 215 202 284 357 14 303 339 29 346 333 281 292 306 290 315 259 189 147 229 265 273 320 65 40 7 349 72 101 98 104 109 110 114 113 108 95
246 246 246 245 245 246 248 251 253 255 258 260 262 265 265 266 267 266 267 268 270 272 275 278 281 283 278 274 278 278 273 271 267 263 261 258 256 255 251 245 245 248 253 255 252 245 232 210 205 205 212 220 215 146 349 351 10 15 326 307 332 193 268 306 304 222 213 245 156 144 190 264 277 227 70 20 2 357 84 101 99 103 106 106 109 106 107 97
246 247 246 246 245 246 247 249 252 254 256 259 261 262 262 263 263 262 264 266 268 271 273 278 280 278 279 279 277 271 269 265 259 254 246 246 247 245 245 245 243 240 238 237 232 215 186 174 181 185 195 204 148 87 39 355 335 355 247 252 269 224 277 316 319 223 196 183 116 142 209 266 283 194 68 17 14 58 93 101 99 102 105 105 107 108 115 115
242 243 244 243 243 244 245 247 249 250 253 255 257 259 261 262 262 264 264 265 268 270 274 275 275 278 268 268 269 264 261 254 246 242 236 241 243 241 239 236 229 224 221 216 212 194 178 173 169 185 153 74 97 96 56 322 283 310 329 236 251 227 236 291 311 335 103 117 94 23 209 246 278 271 337 12 25 76 92 100 96 100 104 104 111 112 120 125
236 238 239 239 239 240 242 245 247 248 250 251 253 257 261 263 266 267 267 268 267 272 278 259 244 287 269 251 253 262 257 240 238 240 242 241 235 233 230 225 221 210 197 189 193 180 176 169 140 145 22 44 116 121 162 233 222 231 224 228 256 241 236 257 276 315 40 25 338 344 260 257 276 284 335 16 37 84 93 103 102 105 108 108 116 115 118 120
234 234 235 235 235 235 237 241 244 246 247 248 253 257 263 269 272 271 267 261 250 246 267 231 199 194 250 240 249 265 247 220 225 236 240 235 225 223 213 206 198 183 168 159 186 172 160 118 94 138 236 208 187 168 200 220 209 214 218 212 230 245 250 237 250 263 17 354 302 263 258 262 272 281 345 19 50 91 100 109 105 109 112 112 115 113 115 114
231 231 232 233 231 231 233 238 240 242 244 248 255 262 268 274 280 276 265 253 247 248 256 246 230 237 250 264 271 263 239 223 233 243 240 231 218 211 198 183 167 168 162 153 179 159 150 154 168 208 219 207 201 203 217 238 215 200 223 239 231 237 265 254 259 280 38 348 275 253 252 263 264 288 351 13 69 89 100 111 108 113 114 114 115 113 113 110
229 230 231 232 230 230 233 237 240 241 243 245 253 259 258 253 257 283 282 270 266 263 261 258 253 252 255 260 260 255 246 241 248 246 239 224 205 194 191 174 145 172 232 137 129 98 144 184 222 230 227 210 203 212 233 275 280 244 235 260 265 235 259 260 261 294 328 183 264 274 278 274 263 315 352 13 77 77 107 120 120 123 119 118 118 114 113 110
227 228 229 231 230 231 234 239 241 243 247 247 249 250 249 250 256 274 291 287 277 270 264 259 254 253 254 252 251 251 247 248 249 239 230 213 198 196 189 163 149 186 178 109 107 47 166 222 241 242 237 89 360 169 195 234 239 247 233 265 275 245 280 288 281 319 26 181 264 310 290 274 278 31 7 26 75 86 125 137 133 132 127 124 121 117 117 115
226 225 227 230 229 230 234 239 242 244 248 248 249 248 250 257 261 276 288 284 281 274 263 257 253 252 253 251 249 246 239 240 248 240 231 212 196 196 183 155 155 158 130 173 182 189 232 240 243 241 208 174 259 168 139 212 234 225 197 215 257 240 348 282 285 334 20 195 258 298 279 274 278 112 48 42 86 98 112 133 134 135 132 127 125 122 120 118
225 224 225 226 225 226 231 238 241 243 247 247 248 245 246 254 259 286 293 277 280 273 260 254 250 250 251 249 246 241 234 234 241 238 225 208 188 185 189 173 152 155 200 200 195 206 240 251 242 173 159 188 233 225 171 215 258 238 202 212 241 233 214 229 281 336 333 346 344 309 304 290 260 229 129 62 87 92 103 125 127 133 134 130 130 126 122 120
223 224 223 222 220 220 226 235 237 238 243 243 243 237 235 242 256 307 316 299 283 269 258 249 242 244 244 243 240 230 225 230 231 226 212 201 191 177 176 180 166 202 212 181 186 231 258 261 227 128 155 167 197 233 209 196 236 293 228 215 224 226 227 238 321 3 353 342 350 6 306 293 298 276 192 113 74 75 95 118 123 132 137 136 132 126 124 121
220 219 219 220 219 216 223 233 236 236 237 238 237 226 222 214 191 345 8 2 286 244 202 212 213 219 220 224 213 190 195 243 223 214 201 197 199 187 159 168 155 210 193 150 160 230 255 278 170 165 188 156 185 245 221 158 151 275 247 213 215 217 230 253 232 96 218 262 311 48 184 264 305 323 126 121 94 84 111 119 136 143 142 140 133 130 129 123
223 220 218 220 219 216 220 227 232 231 228 231 227 209 204 191 156 60 40 346 278 193 146 168 173 171 189 180 161 154 175 201 174 196 193 189 196 189 182 178 126 187 172 132 221 245 199 29 54 120 155 161 200 244 212 151 136 236 253 166 176 196 209 217 172 176 230 249 325 7 138 250 283 290 312 129 125 186 222 196 179 160 152 149 142 139 135 128
228 226 222 221 222 220 220 225 230 225 219 220 211 194 182 165 156 108 78 276 270 124 125 157 155 163 169 164 162 148 129 140 126 180 184 181 188 181 198 204 168 177 158 142 218 264 141 130 160 146 133 187 214 226 190 159 153 241 221 119 134 163 167 147 136 177 266 18 309 299 149 251 268 269 321 120 158 233 215 199 204 182 172 166 157 150 141 135
228 226 226 223 221 221 219 223 227 224 217 206 191 186 170 151 142 88 88 236 225 101 131 152 145 155 146 151 170 153 104 115 104 159 166 174 184 168 180 196 160 140 109 137 214 257 109 184 185 145 140 209 216 234 184 169 189 205 133 94 78 76 87 92 114 135 47 32 245 239 188 219 277 279 243 179 237 238 196 180 205 193 188 180 169 161 149 142
229 227 226 221 217 217 217 220 223 223 213 196 184 177 164 150 124 106 213 230 161 103 126 145 159 162 137 135 173 199 126 78 106 134 141 156 173 147 120 152 131 118 59 4 263 258 289 148 178 158 178 190 152 84 155 164 157 140 113 62 47 39 41 44 63 94 63 277 239 225 197 194 267 281 218 202 218 185 148 159 199 199 196 190 179 170 158 150
230 229 227 223 221 219 217 219 219 216 203 190 181 171 161 147 94 176 215 220 62 120 117 130 181 138 135 131 159 176 108 47 133 136 129 126 148 133 114 128 107 87 17 328 290 304 330 165 233 214 184 143 103 70 39 62 104 114 94 67 65 337 6 22 356 45 140 256 260 262 221 178 235 263 240 227 211 172 164 173 185 193 195 190 183 176 167 159
229 229 228 227 225 221 221 224 221 209 197 187 183 175 158 138 231 207 221 59 93 197 148 153 184 134 150 109 123 174 116 104 175 139 136 138 152 176 167 162 158 81 342 250 259 336 294 232 253 189 183 162 116 74 33 28 58 89 97 94 83 331 3 356 312 23 229 250 272 325 356 212 238 249 234 222 212 206 203 188 182 184 188 187 183 178 173 167
229 227 228 227 223 220 221 227 222 207 199 193 188 178 150 185 218 196 199 190 184 183 128 124 106 123 140 120 231 191 111 153 195 148 114 104 142 218 253 204 160 121 96 188 202 340 304 298 301 121 220 195 159 141 175 232 99 138 145 129 124 103 62 299 272 273 276 269 283 289 262 246 268 274 230 223 249 267 256 213 189 183 182 183 181 179 176 173
233 227 226 224 223 222 221 223 218 206 203 198 188 170 158 217 223 150 180 211 252 64 90 100 106 109 124 153 228 184 138 207 159 126 66 76 120 231 252 242 175 106 101 145 182 170 171 315 231 175 216 186 176 176 162 141 141 176 159 134 143 149 158 229 232 224 267 289 300 283 212 201 224 245 247 253 283 297 270 213 188 182 182 181 180 181 180 178
235 226 220 220 223 222 221 222 217 211 208 199 183 161 197 210 222 129 184 204 199 104 56 68 106 110 133 213 267 194 179 228 127 113 105 141 174 201 200 213 195 146 126 158 224 154 151 264 258 267 44 151 171 192 128 108 117 207 129 116 158 177 172 212 202 173 185 303 296 233 214 224 195 172 316 302 335 14 144 167 168 174 180 180 183 185 184 182
229 218 213 220 225 221 220 220 214 216 214 200 175 199 213 211 180 183 186 156 159 148 116 69 90 110 185 237 278 227 175 141 132 129 189 196 202 209 209 220 194 179 163 153 204 162 119 267 284 339 54 106 114 159 117 112 180 165 120 180 223 180 147 174 262 107 100 272 272 199 245 284 317 352 343 15 36 53 109 151 161 170 177 182 187 188 187 186
218 210 210 218 223 223 221 216 212 218 214 198 188 218 217 251 188 197 254 107 128 139 130 144 170 146 187 203 212 206 151 128 145 148 203 216 212 196 211 245 187 186 193 174 215 199 135 265 287 74 128 351 44 102 66 58 120 127 174 219 221 142 101 106 257 2 36 262 274 202 244 270 280 272 336 21 317 217 168 161 160 168 178 186 192 192 189 189
212 209 212 217 223 224 219 214 215 217 210 194 215 218 192 259 227 356 330 118 85 97 122 176 206 140 166 185 209 196 161 162 159 158 186 221 237 177 171 217 173 194 210 177 151 241 123 276 296 358 132 310 20 86 54 14 68 124 183 197 112 152 180 92 136 248 262 265 279 291 274 257 221 224 227 219 219 202 186 181 171 178 186 192 195 194 192 192
210 206 211 216 220 222 217 214 214 211 205 196 222 217 152 293 246 289 281 279 63 104 124 179 148 68 144 156 171 187 165 169 165 168 178 180 231 188 150 184 154 260 223 168 162 241 112 138 283 318 207 251 28 73 176 274 19 80 117 6 64 162 181 141 139 181 225 258 271 292 303 277 232 208 183 204 208 182 176 189 194 195 194 194 196 195 195 195
203 197 208 213 214 219 218 212 206 203 201 208 208 208 82 180 262 280 294 20 38 83 129 176 108 121 154 128 155 184 113 145 161 168 202 192 220 230 241 159 129 60 115 148 153 145 88 163 243 309 331 235 182 192 189 192 175 127 163 257 243 159 131 238 226 145 153 209 239 275 283 268 249 196 183 211 211 180 185 192 195 200 199 198 198 196 195 195
194 189 203 203 207 212 205 197 193 186 165 221 205 205 193 186 276 319 352 83 73 67 103 144 134 146 149 133 178 174 110 120 157 160 218 220 205 229 252 139 141 148 93 95 145 189 153 165 196 255 295 206 228 239 201 186 176 167 183 198 196 179 163 256 258 192 127 185 193 235 268 268 256 199 196 219 211 192 199 198 196 202 202 200 201 199 196 193
188 183 173 184 191 190 181 176 177 164 153 192 184 171 177 160 150 284 345 80 100 71 92 106 107 139 153 163 172 150 137 146 163 170 209 222 204 194 190 159 148 149 122 101 208 202 120 124 187 246 229 217 241 256 149 171 145 140 193 199 173 159 157 208 239 233 199 236 152 169 264 271 256 214 232 241 234 217 208 205 203 206 205 203 203 202 198 195
184 159 158 174 178 175 172 178 181 164 163 164 153 156 171 167 140 145 293 195 156 93 118 119 158 184 197 168 158 159 165 173 184 184 196 217 217 218 180 159 124 95 100 338 295 37 68 113 203 272 279 300 335 38 71 65 85 125 236 186 148 181 180 197 224 200 189 232 195 172 254 262 274 205 260 265 252 233 211 206 205 205 205 207 206 204 201 199
164 142 156 175 177 174 177 207 169 178 174 136 140 164 173 178 185 178 183 206 202 139 139 183 188 205 221 137 143 173 168 169 206 201 198 205 222 233 182 170 158 160 197 208 175 160 171 132 111 309 304 315 326 339 8 0 21 202 242 226 186 210 182 146 199 123 219 231 214 222 249 251 262 25 16 25 83 192 203 202 203 204 204 206 207 205 205 206
142 148 157 182 183 184 197 309 121 167 170 149 160 174 163 188 211 203 202 200 197 181 164 189 148 145 160 107 104 162 169 177 209 212 204 214 246 246 198 195 188 188 205 171 155 156 168 173 144 203 261 264 267 261 236 273 274 195 253 259 223 209 195 199 249 215 231 231 214 232 251 256 313 358 15 29 93 153 196 198 204 210 208 206 206 205 208 210
138 168 130 187 197 205 236 263 155 122 156 169 176 176 189 216 224 202 200 205 209 196 158 142 124 96 104 146 146 194 201 195 197 207 202 203 248 272 213 215 213 208 196 160 155 146 120 201 201 217 239 245 257 259 217 146 184 228 244 233 221 219 209 213 241 232 233 240 230 237 239 227 276 277 282 264 214 201 210 202 204 211 211 208 206 206 210 213
134 205 163 148 222 229 247 255 221 150 149 171 175 178 195 203 209 196 197 206 212 194 165 140 157 157 194 169 165 209 206 193 202 216 210 192 237 294 261 227 237 223 186 164 165 148 105 242 222 222 236 243 254 261 212 145 225 244 254 248 236 231 209 209 232 230 209 247 251 242 180 153 255 259 223 223 224 216 219 213 208 210 211 209 205 206 211 215
183 223 182 167 189 219 235 237 208 195 195 182 187 196 193 198 202 195 193 207 209 188 187 221 198 202 200 170 165 200 194 197 215 211 196 188 219 283 287 259 232 196 170 158 177 149 144 242 234 222 236 245 252 253 202 191 235 242 248 250 242 234 217 216 231 223 187 227 254 242 150 186 249 251 202 209 216 214 219 222 219 213 210 209 206 207 214 219
195 213 189 186 201 247 235 209 187 194 214 204 202 223 210 209 210 193 156 137 201 205 203 219 220 208 199 179 173 198 206 208 218 204 180 193 205 196 235 270 241 173 158 141 197 166 162 242 242 220 241 253 252 240 204 212 242 245 244 245 243 242 233 223 231 227 208 233 255 242 198 227 239 213 196 221 229 225 226 228 222 214 209 209 209 211 218 225
205 209 187 181 212 250 58 172 169 189 215 208 220 232 226 226 221 198 143 164 183 207 205 219 227 198 185 188 187 214 225 211 215 220 181 186 214 185 204 236 193 154 163 144 207 211 193 240 252 144 242 262 251 210 189 210 229 243 252 251 247 248 246 216 219 219 216 240 248 237 236 252 245 184 195 239 236 218 222 224 220 216 214 217 222 224 227 233
211 208 193 172 198 199 181 167 155 180 215 205 219 227 222 230 220 196 199 206 203 198 190 210 223 188 178 203 204 224 232 209 214 230 194 191 216 196 197 208 159 144 179 179 163 192 198 237 33 108 236 259 240 188 197 210 223 244 253 252 248 245 232 214 210 203 207 225 240 242 248 261 250 152 180 236 228 215 225 229 228 226 225 231 240 242 242 244
210 209 200 186 199 198 181 150 146 189 216 210 221 228 222 227 210 185 211 228 211 209 204 202 205 186 192 217 215 229 240 227 236 249 229 225 235 220 219 215 179 164 171 173 170 167 172 176 138 171 236 261 246 170 168 163 208 248 246 241 236 234 231 230 242 230 216 209 218 235 245 250 162 131 156 236 229 224 233 237 239 242 243 248 255 259 261 261
Height
1539 1540 1540 1540 1541 1541 1541 1541 1542 1542 1542 1543 1543 1543 1543 1544 1544 1544 1544 1544 1544 1544 1544 1543 1543 1543 1542 1542 1542 1541 1540 1540 1539 1538 1537 1536 1535 1535 1536 1536 1537 1537 1538 1538 1538 1538 1538 1538 1538 1539 1539 1539 1539 1539 1539 1539 1540 1539 1543 1546 1546 1551 1549 1543 1545 1544 1542 1540 1539 1539 1539 1540 1538 1536 1535 1534 1534 1533 1533 1533 1534 1534 1534 1534 1533 1533 1531 1530
1539 1539 1539 1540 1540 1541 1541 1541 1541 1542 1542 1542 1543 1543 1543 1543 1543 1544 1544 1544 1544 1544 1543 1543 1543 1542 1542 1541 1541 1540 1540 1539 1538 1537 1535 1535 1534 1534 1535 1536 1537 1537 1538 1538 1537 1537 1538 1538 1538 1538 1539 1539 1539 1539 1539 1540 1540 1541 1546 1547 1546 1548 1544 1540 1542 1541 1541 1540 1539 1539 1539 1539 1538 1536 1535 1534 1532 1532 1531 1531 1532 1532 1532 1533 1532 1531 1529 1528
1538 1538 1539 1539 1540 1540 1540 1541 1541 1541 1542 1542 1542 1542 1543 1543 1543 1543 1543 1543 1543 1543 1543 1543 1542 1542 1542 1541 1540 1540 1539 1538 1536 1536 1535 1535 1535 1535 1536 1536 1537 1537 1537 1537 1537 1537 1537 1538 1538 1538 1538 1539 1539 1539 1539 1540 1540 1542 1545 1546 1544 1544 1542 1540 1541 1540 1540 1540 1539 1539 1538 1538 1537 1536 1535 1534 1532 1532 1531 1530 1531 1531 1530 1530 1529 1528 1527 1527
1537 1538 1538 1539 1539 1539 1540 1540 1540 1541 1541 1542 1542 1542 1542 1543 1543 1543 1543 1543 1543 1542 1542 1542 1542 1541 1541 1540 1540 1539 1538 1537 1536 1536 1536 1536 1536 1536 1536 1537 1537 1537 1537 1537 1537 1537 1537 1537 1538 1538 1538 1539 1539 1539 1540 1540 1541 1542 1543 1543 1542 1542 1542 1539 1539 1540 1540 1540 1539 1538 1538 1537 1535 1535 1534 1534 1533 1530 1529 1530 1530 1529 1528 1528 1527 1526 1525 1525
1536 1537 1537 1538 1538 1539 1539 1539 1540 1540 1541 1541 1541 1542 1542 1542 1542 1542 1542 1542 1542 1542 1541 1541 1541 1540 1540 1540 1539 1539 1539 1538 1536 1536 1536 1536 1537 1536 1536 1537 1536 1537 1537 1537 1536 1537 1537 1537 1538 1538 1538 1539 1539 1539 1540 1540 1541 1541 1541 1540 1540 1542 1541 1539 1540 1540 1539 1540 1539 1538 1538 1535 1534 1534 1532 1533 1533 1529 1528 1530 1529 1528 1527 1526 1526 1525 1524 1523
1536 1536 1537 1537 1538 1538 1538 1539 1539 1540 1540 1540 1541 1541 1541 1541 1541 1541 1541 1541 1541 1541 1541 1540 1540 1540 1539 1539 1539 1538 1539 1539 1537 1536 1537 1537 1537 1536 1536 1536 1536 1536 1536 1536 1536 1536 1537 1537 1538 1538 1539 1539 1540 1540 1540 1541 1541 1541 1540 1539 1540 1541 1540 1539 1540 1540 1539 1539 1538 1538 1537 1535 1534 1532 1530 1530 1529 1528 1529 1529 1528 1526 1526 1525 1524 1523 1523 1523
1535 1535 1536 1536 1537 1537 1537 1538 1538 1539 1539 1539 1540 1540 1540 1540 1540 1540 1540 1540 1540 1540 1540 1539 1539 1539 1538 1538 1538 1538 1538 1537 1536 1536 1536 1536 1536 1536 1536 1536 1536 1536 1536 1536 1536 1536 1536 1537 1537 1538 1539 1539 1540 1540 1540 1541 1541 1542 1541 1539 1539 1540 1540 1539 1539 1539 1539 1538 1537 1537 1536 1535 1534 1532 1529 1526 1526 1528 1527 1526 1526 1525 1524 1524 1523 1523 1522 1522
1534 1534 1535 1535 1536 1536 1536 1537 1537 1538 1538 1538 1539 1539 1539 1539 1539 1539 1539 1539 1539 1539 1539 1538 1538 1538 1538 1537 1537 1537 1536 1536 1535 1536 1535 1535 1536 1535 1535 1535 1535 1536 1536 1536 1535 1536 1536 1536 1537 1538 1539 1539 1539 1540 1540 1541 1541 1541 1540 1539 1539 1539 1538 1538 1538 1538 1537 1536 1536 1536 1534 1533 1533 1532 1528 1524 1525 1527 1526 1525 1525 1524 1524 1524 1523 1522 1522 1522
1532 1533 1533 1534 1535 1535 1535 1536 1536 1536 1537 1537 1537 1538 1538 1538 1538 1538 1538 1538 1538 1538 1537 1537 1537 1537 1537 1537 1537 1536 1534 1534 1534 1534 1534 1535 1535 1535 1535 1535 1535 1535 1535 1535 1535 1535 1535 1536 1536 1537 1538 1538 1539 1539 1540 1541 1540 1539 1539 1539 1539 1538 1537 1537 1536 1536 1536 1535 1535 1534 1531 1530 1531 1530 1527 1525 1525 1526 1525 1525 1524 1524 1524 1523 1523 1523 1523 1522
1531 1531 1532 1533 1533 1534 1534 1535 1535 1535 1536 1536 1536 1536 1537 1537 1537 1537 1537 1537 1537 1537 1537 1536 1536 1536 1536 1536 1536 1535 1533 1533 1534 1533 1534 1534 1534 1534 1534 1534 1534 1534 1534 1535 1535 1535 1535 1536 1536 1537 1538 1538 1538 1539 1539 1540 1539 1538 1539 1538 1538 1537 1536 1536 1535 1533 1534 1533 1532 1533 1530 1529 1530 1529 1527 1525 1525 1526 1525 1524 1524 1524 1524 1523 1523 1523 1523 1523
1530 1530 1531 1532 1532 1533 1533 1533 1534 1534 1534 1534 1535 1535 1535 1535 1535 1535 1535 1535 1535 1535 1535 1535 1535 1535 1535 1535 1535 1533 1532 1533 1533 1533 1533 1533 1533 1533 1533 1534 1533 1534 1534 1534 1534 1534 1535 1535 1536 1537 1537 1538 1538 1539 1539 1538 1538 1538 1538 1537 1536 1536 1535 1534 1533 1531 1532 1531 1530 1531 1529 1528 1530 1528 1526 1526 1525 1525 1525 1524 1524 1523 1523 1523 1523 1523 1523 1522
1529 1529 1530 1531 1531 1531 1532 1532 1532 1532 1533 1533 1533 1534 1534 1534 1534 1534 1534 1534 1534 1534 1534 1534 1534 1534 1534 1533 1532 1531 1531 1532 1532 1532 1532 1532 1532 1532 1532 1532 1532 1533 1533 1533 1534 1534 1535 1535 1536 1536 1536 1537 1538 1538 1538 1538 1538 1538 1538 1538 1536 1535 1533 1531 1531 1530 1530 1530 1529 1530 1530 1527 1526 1526 1525 1526 1525 1525 1524 1523 1523 1523 1523 1523 1523 1523 1522 1522
1527 1528 1529 1529 1530 1530 1530 1531 1531 1531 1531 1531 1532 1532 1532 1532 1533 1533 1533 1533 1533 1533 1533 1532 1532 1532 1532 1531 1528 1529 1530 1530 1530 1530 1530 1530 1531 1530 1531 1531 1531 1532 1532 1533 1533 1533 1534 1534 1535 1536 1536 1536 1537 1537 1537 1537 1538 1537 1538 1539 1537 1537 1534 1529 1529 1530 1529 1530 1528 1530 1533 1527 1521 1523 1525 1525 1525 1524 1523 1523 1523 1523 1522 1523 1523 1523 1522 1522
1526 1526 1527 1527 1528 1528 1529 1529 1529 1529 1529 1530 1530 1531 1531 1531 1531 1531 1531 1531 1531 1531 1531 1531 1531 1531 1531 1528 1527 1528 1528 1528 1528 1528 1528 1529 1529 1529 1529 1530 1530 1531 1531 1532 1532 1532 1533 1533 1535 1535 1536 1536 1536 1537 1538 1538 1538 1538 1539 1540 1542 1543 1535 1528 1529 1529 1528 1529 1528 1530 1535 1528 1519 1523 1525 1524 1525 1523 1522 1523 1523 1523 1522 1523 1523 1522 1522 1522
1524 1524 1525 1525 1526 1526 1527 1527 1527 1528 1528 1528 1529 1529 1530 1530 1530 1530 1530 1530 1530 1530 1530 1530 1530 1530 1529 1526 1525 1526 1526 1526 1526 1526 1527 1527 1527 1528 1528 1528 1529 1530 1530 1530 1531 1531 1532 1533 1534 1535 1535 1536 1536 1537 1539 1540 1540 1541 1541 1542 1546 1545 1536 1529 1527 1528 1527 1527 1528 1529 1533 1529 1520 1522 1524 1523 1524 1522 1522 1523 1523 1523 1523 1523 1523 1522 1522 1522
1521 1522 1523 1523 1524 1524 1525 1525 1525 1526 1527 1527 1528 1528 1528 1529 1528 1529 1528 1528 1529 1528 1528 1529 1529 1529 1529 1525 1523 1524 1524 1524 1524 1525 1525 1525 1525 1526 1526 1527 1528 1528 1529 1529 1530 1531 1532 1533 1534 1535 1535 1535 1537 1539 1541 1543 1543 1544 1545 1543 1543 1544 1541 1534 1527 1527 1527 1526 1528 1528 1530 1527 1520 1520 1523 1523 1522 1521 1521 1523 1523 1523 1523 1523 1523 1523 1523 1523
1519 1520 1521 1521 1522 1522 1523 1523 1524 1524 1525 1526 1526 1527 1527 1527 1527 1527 1527 1527 1527 1527 1527 1528 1527 1528 1526 1522 1522 1522 1522 1523 1523 1523 1523 1524 1524 1524 1525 1526 1526 1527 1528 1529 1529 1530 1531 1532 1533 1534 1534 1536 1538 1539 1544 1548 1545 1543 1546 1545 1543 1543 1543 1538 1529 1527 1528 1527 1528 1529 1529 1526 1520 1519 1521 1521 1522 1521 1521 1522 1523 1523 1523 1523 1524 1523 1523 1523
1518 1518 1519 1520 1520 1521 1521 1522 1523 1523 1524 1525 1525 1525 1525 1525 1525 1525 1525 1525 1526 1526 1527 1526 1527 1529 1524 1519 1520 1520 1520 1521 1521 1522 1522 1522 1523 1523 1524 1525 1525 1526 1527 1528 1529 1530 1531 1532 1533 1534 1535 1537 1537 1538 1544 1544 1538 1537 1540 1542 1542 1542 1543 1541 1533 1528 1529 1528 1529 1530 1529 1526 1521 1520 1521 1522 1522 1521 1521 1523 1523 1524 1524 1524 1524 1524 1524 1524
1516 1517 1517 1518 1519 1519 1520 1520 1521 1522 1523 1523 1523 1524 1524 1524 1524 1523 1523 1523 1524 1524 1524 1522 1523 1525 1522 1518 1519 1519 1519 1520 1520 1520 1521 1521 1522 1522 1523 1524 1525 1526 1526 1528 1528 1529 1530 1531 1534 1535 1535 1535 1535 1535 1536 1533 1532 1534 1536 1537 1538 1538 1539 1538 1533 1529 1530 1530 1529 1529 1527 1525 1522 1521 1522 1524 1523 1522 1523 1524 1524 1525 1525 1525 1525 1525 1525 1525
1514 1515 1516 1516 1517 1518 1518 1519 1520 1520 1521 1522 1522 1522 1523 1523 1522 1522 1521 1520 1520 1520 1520 1519 1519 1519 1518 1517 1518 1518 1518 1519 1519 1519 1520 1520 1521 1522 1523 1524 1524 1525 1526 1527 1528 1529 1530 1532 1533 1532 1529 1530 1531 1531 1530 1530 1533 1535 1536 1537 1538 1539 1538 1534 1531 1529 1530 1530 1528 1525 1525 1525 1523 1523 1525 1526 1524 1524 1525 1525 1525 1526 1525 1525 1526 1526 1526 1525
1513 1514 1514 1515 1516 1516 1517 1517 1518 1519 1520 1520 1521 1521 1521 1521 1521 1521 1519 1518 1517 1517 1517 1517 1517 1516 1515 1516 1516 1517 1517 1518 1518 1518 1519 1519 1520 1521 1522 1523 1524 1525 1527 1527 1528 1529 1530 1533 1532 1527 1526 1528 1530 1531 1531 1533 1534 1535 1536 1537 1539 1540 1536 1531 1530 1529 1529 1531 1528 1524 1525 1523 1522 1526 1527 1526 1526 1526 1526 1526 1526 1526 1526 1527 1526 1527 1526 1526
1511 1512 1513 1514 1514 1515 1516 1516 1517 1517 1518 1519 1519 1520 1520 1520 1520 1520 1519 1517 1514 1514 1514 1514 1514 1513 1513 1514 1514 1515 1516 1516 1516 1516 1517 1518 1519 1520 1521 1522 1524 1525 1527 1527 1528 1530 1532 1533 1530 1525 1526 1529 1530 1531 1533 1533 1534 1535 1537 1539 1540 1537 1534 1531 1529 1529 1530 1530 1527 1526 1526 1522 1523 1528 1528 1526 1526 1526 1527 1526 1526 1527 1527 1527 1527 1527 1527 1527
1510 1510 1511 1512 1512 1514 1514 1515 1516 1516 1517 1517 1518 1519 1519 1519 1519 1519 1519 1517 1512 1510 1510 1510 1510 1509 1509 1510 1511 1512 1513 1513 1513 1513 1515 1516 1517 1519 1519 1521 1523 1524 1526 1527 1527 1531 1532 1529 1525 1524 1527 1529 1530 1531 1532 1533 1535 1536 1538 1540 1537 1534 1535 1533 1529 1529 1530 1530 1527 1527 1527 1523 1522 1526 1528 1528 1527 1527 1528 1528 1528 1528 1528 1528 1528 1528 1528 1527
1508 1509 1510 1510 1511 1512 1512 1514 1514 1514 1515 1516 1517 1517 1518 1518 1519 1518 1518 1517 1512 1507 1506 1506 1505 1505 1505 1507 1507 1509 1510 1510 1511 1511 1512 1514 1515 1517 1518 1519 1522 1524 1525 1525 1526 1528 1527 1524 1523 1524 1526 1528 1529 1530 1532 1532 1534 1536 1536 1536 1533 1532 1533 1532 1529 1529 1528 1529 1529 1528 1526 1520 1518 1520 1525 1528 1529 1528 1529 1529 1529 1530 1529 1529 1529 1528 1528 1528
1506 1507 1507 1508 1510 1510 1511 1512 1512 1513 1514 1514 1516 1516 1517 1517 1518 1518 1518 1518 1512 1505 1502 1502 1502 1502 1502 1504 1505 1506 1508 1508 1508 1509 1510 1512 1513 1515 1517 1518 1520 1522 1523 1525 1527 1528 1525 1522 1522 1524 1525 1527 1528 1529 1529 1531 1535 1535 1531 1528 1528 1529 1529 1530 1531 1531 1530 1529 1530 1530 1526 1519 1514 1517 1525 1529 1530 1530 1531 1531 1531 1530 1530 1530 1529 1529 1529 1528
1504 1505 1505 1507 1508 1508 1510 1509 1510 1512 1512 1514 1514 1515 1517 1516 1518 1518 1518 1521 1514 1501 1499 1500 1499 1500 1499 1501 1503 1504 1507 1506 1505 1507 1508 1510 1512 1513 1516 1517 1518 1520 1522 1524 1527 1526 1523 1521 1521 1523 1524 1526 1528 1528 1527 1530 1535 1534 1527 1524 1526 1527 1528 1530 1532 1533 1532 1530 1532 1532 1530 1524 1513 1513 1526 1532 1531 1532 1532 1531 1532 1532 1531 1531 1530 1530 1530 1529
1501 1502 1503 1505 1506 1507 1508 1507 1509 1510 1511 1513 1512 1514 1516 1515 1518 1517 1519 1527 1514 1494 1494 1498 1497 1498 1498 1500 1501 1503 1506 1504 1503 1506 1507 1509 1510 1511 1514 1516 1518 1519 1520 1524 1526 1523 1520 1520 1522 1522 1524 1526 1526 1526 1526 1528 1531 1530 1525 1524 1525 1525 1527 1530 1530 1532 1531 1530 1532 1530 1530 1528 1515 1515 1529 1532 1529 1532 1532 1532 1532 1532 1532 1532 1531 1531 1530 1530
1499 1500 1501 1503 1504 1504 1505 1506 1507 1508 1510 1511 1511 1514 1514 1515 1518 1516 1522 1531 1508 1487 1491 1495 1495 1496 1496 1499 1500 1501 1503 1502 1503 1506 1506 1508 1510 1510 1513 1514 1516 1517 1518 1521 1523 1520 1518 1520 1521 1521 1524 1525 1523 1522 1523 1524 1525 1525 1525 1526 1526 1526 1528 1529 1530 1533 1534 1535 1533 1528 1529 1528 1516 1519 1532 1530 1526 1527 1529 1532 1532 1532 1533 1532 1532 1531 1530 1530
1497 1498 1499 1501 1502 1503 1504 1504 1505 1507 1508 1509 1510 1512 1513 1516 1517 1516 1529 1528 1496 1484 1492 1493 1494 1497 1496 1499 1500 1500 1501 1501 1503 1505 1506 1508 1509 1510 1511 1512 1514 1516 1518 1519 1519 1518 1518 1518 1518 1520 1522 1521 1520 1520 1522 1522 1522 1523 1526 1527 1527 1529 1531 1531 1530 1531 1534 1536 1532 1525 1526 1525 1516 1518 1528 1527 1522 1520 1525 1531 1531 1531 1532 1532 1532 1532 1531 1531
1494 1495 1497 1498 1499 1500 1501 1501 1503 1505 1507 1508 1509 1511 1513 1515 1516 1522 1532 1515 1487 1486 1494 1492 1495 1497 1496 1499 1500 1500 1501 1501 1502 1504 1506 1508 1508 1509 1510 1512 1514 1516 1518 1519 1518 1517 1517 1518 1518 1517 1517 1517 1518 1521 1523 1523 1522 1523 1525 1523 1525 1529 1530 1532 1532 1531 1533 1532 1527 1521 1521 1523 1518 1514 1518 1519 1515 1515 1521 1528 1529 1530 1531 1531 1532 1532 1531 1532
1491 1493 1494 1495 1495 1497 1498 1498 1500 1502 1505 1506 1508 1510 1512 1514 1517 1523 1518 1495 1484 1490 1492 1493 1497 1496 1497 1499 1500 1501 1502 1502 1503 1504 1506 1507 1508 1509 1511 1512 1514 1517 1520 1519 1518 1517 1517 1517 1516 1514 1514 1515 1517 1520 1523 1524 1524 1524 1523 1521 1525 1528 1529 1532 1533 1533 1533 1527 1524 1526 1526 1527 1521 1510 1509 1512 1514 1515 1516 1519 1522 1524 1526 1528 1530 1531 1532 1532
1489 1490 1491 1491 1492 1494 1495 1496 1499 1502 1503 1504 1507 1507 1510 1516 1517 1511 1498 1485 1486 1490 1488 1493 1497 1496 1498 1499 1499 1501 1502 1503 1504 1504 1506 1508 1509 1509 1509 1510 1511 1515 1519 1519 1518 1517 1515 1513 1513 1512 1512 1513 1515 1518 1523 1524 1524 1523 1523 1524 1529 1533 1534 1533 1532 1536 1533 1525 1528 1533 1529 1526 1519 1506 1505 1509 1512 1515 1513 1513 1515 1517 1521 1525 1528 1530 1531 1532
1485 1487 1488 1488 1490 1491 1493 1495 1498 1501 1501 1503 1505 1505 1509 1513 1505 1494 1490 1486 1484 1485 1486 1490 1494 1496 1499 1498 1499 1502 1502 1503 1504 1505 1507 1508 1509 1509 1508 1509 1509 1508 1512 1518 1519 1516 1513 1510 1512 1512 1511 1510 1511 1514 1518 1520 1523 1523 1522 1524 1529 1536 1540 1536 1534 1539 1533 1523 1530 1536 1529 1524 1513 1504 1508 1511 1512 1515 1514 1514 1515 1515 1519 1522 1525 1529 1530 1531
1483 1484 1485 1485 1488 1490 1491 1494 1496 1498 1500 1501 1503 1505 1509 1506 1492 1485 1487 1486 1483 1485 1486 1488 1492 1496 1498 1498 1499 1499 1500 1503 1504 1506 1508 1509 1511 1511 1509 1509 1510 1507 1510 1516 1517 1515 1514 1509 1507 1508 1508 1508 1508 1509 1511 1514 1520 1523 1522 1523 1525 1528 1531 1529 1526 1528 1524 1521 1529 1533 1526 1514 1504 1505 1514 1515 1514 1515 1513 1514 1516 1518 1521 1523 1525 1528 1529 1530
1480 1481 1482 1483 1485 1487 1488 1492 1494 1496 1498 1497 1499 1503 1502 1494 1487 1487 1485 1483 1484 1485 1486 1488 1490 1494 1497 1498 1498 1498 1497 1500 1504 1506 1508 1509 1510 1509 1506 1506 1508 1508 1509 1512 1513 1515 1516 1509 1505 1508 1507 1507 1508 1509 1510 1512 1518 1524 1525 1524 1522 1519 1518 1521 1525 1527 1527 1527 1526 1526 1518 1507 1505 1512 1517 1516 1514 1515 1513 1514 1516 1518 1521 1523 1524 1526 1527 1529
1477 1478 1480 1480 1481 1483 1486 1489 1491 1494 1495 1494 1496 1498 1492 1484 1483 1484 1479 1478 1480 1482 1486 1490 1490 1493 1497 1497 1497 1498 1495 1497 1503 1505 1507 1509 1508 1507 1505 1502 1503 1504 1503 1505 1507 1511 1514 1509 1506 1508 1508 1508 1509 1509 1510 1511 1514 1523 1525 1519 1519 1518 1514 1518 1528 1531 1533 1529 1521 1518 1512 1504 1506 1511 1515 1517 1515 1515 1515 1514 1515 1518 1520 1522 1523 1524 1525 1527
1473 1475 1476 1476 1478 1481 1483 1485 1489 1491 1491 1491 1492 1491 1485 1481 1481 1480 1478 1477 1478 1479 1483 1488 1488 1490 1494 1494 1495 1496 1495 1496 1502 1503 1505 1507 1503 1502 1502 1498 1499 1500 1498 1499 1502 1504 1508 1508 1506 1507 1507 1508 1511 1510 1510 1512 1513 1519 1521 1516 1516 1519 1517 1519 1526 1529 1533 1531 1521 1515 1511 1505 1502 1504 1512 1518 1515 1515 1517 1516 1516 1518 1519 1520 1521 1521 1523 1525
1469 1472 1473 1473 1476 1478 1480 1483 1486 1487 1488 1487 1486 1485 1483 1483 1481 1480 1480 1479 1479 1478 1480 1485 1485 1487 1491 1493 1494 1495 1495 1496 1500 1502 1503 1503 1498 1496 1497 1495 1497 1498 1496 1497 1500 1502 1506 1508 1507 1509 1509 1509 1510 1510 1511 1513 1513 1514 1515 1516 1517 1519 1518 1522 1527 1529 1529 1528 1519 1510 1509 1508 1502 1500 1504 1507 1508 1512 1516 1517 1517 1516 1515 1516 1517 1518 1521 1522
1466 1469 1469 1469 1473 1476 1478 1481 1483 1484 1485 1484 1483 1483 1483 1483 1482 1481 1480 1479 1479 1479 1481 1483 1485 1487 1491 1492 1492 1494 1495 1496 1499 1500 1499 1499 1497 1494 1494 1494 1495 1498 1497 1497 1500 1502 1504 1508 1509 1509 1511 1510 1510 1511 1512 1512 1515 1515 1515 1517 1519 1518 1518 1520 1524 1523 1522 1524 1519 1511 1506 1500 1496 1496 1495 1493 1500 1508 1512 1514 1513 1510 1509 1510 1511 1514 1517 1519
1462 1464 1465 1465 1469 1472 1475 1478 1480 1481 1482 1481 1482 1482 1482 1482 1481 1480 1480 1480 1479 1479 1481 1484 1485 1488 1490 1492 1493 1493 1494 1495 1497 1498 1497 1497 1496 1494 1493 1493 1495 1497 1498 1498 1500 1502 1504 1508 1510 1510 1512 1511 1508 1508 1507 1505 1510 1514 1515 1518 1518 1518 1520 1521 1520 1518 1518 1521 1522 1519 1510 1494 1490 1497 1495 1491 1498 1504 1504 1505 1505 1505 1506 1506 1508 1511 1513 1516
1459 1461 1462 1463 1466 1469 1472 1475 1477 1477 1480 1481 1481 1481 1481 1480 1480 1480 1480 1480 1479 1480 1482 1483 1485 1486 1488 1491 1492 1492 1494 1496 1496 1497 1497 1496 1495 1494 1493 1493 1494 1497 1498 1499 1501 1502 1503 1507 1509 1509 1511 1508 1502 1503 1504 1503 1505 1507 1508 1510 1511 1513 1517 1520 1519 1517 1518 1519 1516 1516 1509 1492 1489 1499 1498 1496 1499 1500 1499 1500 1500 1502 1503 1505 1508 1510 1512 1515
1457 1458 1459 1461 1463 1466 1469 1472 1472 1472 1476 1478 1478 1477 1479 1479 1478 1479 1479 1479 1480 1480 1481 1483 1485 1487 1487 1489 1490 1491 1493 1495 1496 1496 1496 1495 1495 1493 1493 1494 1495 1495 1496 1499 1501 1501 1502 1505 1508 1507 1505 1504 1503 1505 1508 1507 1506 1506 1506 1506 1507 1509 1511 1514 1515 1514 1517 1519 1515 1516 1509 1493 1492 1500 1499 1498 1499 1497 1498 1499 1500 1502 1504 1506 1509 1510 1513 1515
1456 1457 1458 1459 1461 1463 1465 1468 1468 1469 1471 1472 1473 1474 1476 1477 1478 1479 1479 1480 1481 1481 1482 1483 1484 1486 1486 1487 1489 1491 1491 1493 1494 1494 1494 1495 1494 1493 1493 1494 1495 1496 1498 1500 1501 1502 1503 1505 1508 1505 1500 1501 1505 1507 1508 1508 1508 1507 1506 1506 1508 1506 1504 1507 1508 1508 1510 1511 1511 1515 1508 1492 1492 1499 1497 1497 1497 1496 1498 1498 1499 1502 1504 1506 1508 1509 1512 1513
1456 1458 1458 1458 1459 1460 1462 1463 1464 1465 1467 1469 1472 1473 1474 1475 1476 1478 1479 1480 1481 1482 1482 1483 1483 1484 1485 1486 1487 1489 1491 1493 1494 1492 1493 1494 1493 1493 1493 1494 1496 1498 1498 1499 1500 1503 1505 1505 1509 1510 1507 1505 1505 1505 1507 1508 1508 1506 1504 1505 1506 1504 1504 1508 1509 1512 1511 1503 1502 1509 1501 1487 1491 1498 1496 1496 1496 1496 1497 1497 1498 1501 1502 1504 1506 1508 1510 1511
1456 1458 1458 1458 1458 1459 1459 1459 1460 1463 1465 1468 1471 1473 1474 1475 1474 1475 1477 1479 1480 1481 1481 1482 1482 1482 1484 1486 1487 1489 1491 1493 1494 1493 1494 1494 1493 1493 1493 1493 1495 1495 1495 1496 1497 1499 1503 1504 1506 1512 1514 1511 1505 1502 1503 1504 1505 1506 1505 1504 1505 1505 1505 1505 1506 1510 1508 1498 1498 1502 1493 1486 1492 1496 1495 1496 1497 1496 1496 1497 1498 1498 1499 1500 1503 1505 1507 1509
1455 1457 1458 1459 1458 1459 1459 1458 1459 1461 1463 1466 1470 1471 1472 1474 1472 1472 1475 1477 1477 1478 1479 1480 1482 1482 1484 1486 1488 1489 1490 1492 1494 1493 1492 1493 1492 1492 1493 1493 1494 1494 1494 1496 1496 1498 1501 1502 1501 1503 1506 1504 1498 1496 1498 1501 1502 1503 1502 1501 1502 1502 1502 1503 1503 1503 1499 1497 1496 1491 1487 1488 1490 1491 1494 1496 1497 1496 1495 1496 1496 1497 1498 1499 1500 1503 1505 1506
1455 1456 1457 1458 1459 1459 1459 1459 1460 1461 1462 1464 1467 1467 1468 1470 1471 1471 1473 1474 1474 1476 1477 1479 1480 1481 1483 1485 1488 1489 1488 1490 1492 1491 1491 1491 1491 1492 1493 1493 1494 1494 1495 1496 1497 1499 1501 1501 1499 1499 1499 1496 1493 1494 1499 1501 1500 1499 1499 1499 1499 1500 1501 1503 1500 1495 1494 1497 1492 1484 1488 1493 1489 1488 1492 1495 1495 1496 1495 1494 1495 1495 1496 1496 1498 1500 1502 1503
1454 1454 1455 1457 1458 1458 1458 1459 1459 1461 1462 1463 1463 1463 1464 1466 1468 1469 1471 1473 1473 1474 1476 1478 1478 1478 1479 1481 1484 1486 1487 1488 1489 1488 1489 1491 1492 1492 1492 1493 1494 1494 1495 1497 1497 1498 1500 1498 1494 1496 1497 1494 1493 1496 1499 1500 1499 1498 1498 1497 1495 1496 1497 1497 1495 1493 1493 1493 1486 1482 1490 1493 1487 1487 1491 1492 1492 1492 1491 1491 1492 1492 1493 1495 1496 1498 1499 1501
1453 1453 1454 1456 1456 1457 1457 1458 1459 1461 1462 1463 1463 1462 1462 1463 1464 1466 1468 1472 1474 1472 1473 1475 1474 1474 1477 1478 1480 1483 1483 1483 1484 1484 1486 1489 1490 1491 1491 1491 1493 1494 1495 1497 1497 1498 1499 1496 1492 1494 1496 1493 1493 1496 1498 1500 1500 1498 1497 1496 1492 1491 1492 1494 1494 1493 1494 1492 1487 1487 1491 1489 1485 1486 1489 1490 1489 1489 1490 1490 1490 1491 1492 1494 1495 1496 1496 1498
1451 1451 1452 1454 1455 1456 1457 1458 1459 1461 1461 1463 1463 1460 1459 1461 1463 1464 1465 1468 1471 1471 1470 1470 1470 1472 1475 1477 1478 1477 1475 1475 1479 1481 1484 1486 1487 1489 1490 1488 1490 1494 1496 1496 1497 1498 1499 1497 1494 1495 1497 1494 1492 1496 1500 1500 1499 1498 1496 1491 1488 1489 1493 1495 1493 1492 1493 1492 1488 1489 1491 1487 1483 1484 1487 1488 1488 1489 1489 1489 1489 1490 1491 1493 1494 1494 1494 1495
1449 1450 1451 1453 1455 1455 1457 1457 1458 1460 1461 1461 1459 1456 1457 1460 1460 1462 1464 1463 1464 1466 1466 1467 1469 1472 1474 1475 1475 1472 1471 1474 1477 1478 1480 1482 1484 1485 1486 1485 1486 1491 1494 1496 1496 1496 1498 1499 1496 1497 1498 1493 1491 1496 1499 1499 1501 1502 1496 1487 1485 1489 1492 1490 1488 1488 1488 1487 1486 1489 1489 1484 1482 1484 1487 1487 1487 1488 1487 1487 1488 1489 1490 1491 1491 1491 1493 1494
1448 1449 1451 1453 1454 1454 1455 1456 1458 1459 1457 1455 1454 1454 1456 1457 1457 1460 1463 1461 1460 1462 1463 1464 1466 1470 1473 1473 1471 1470 1471 1475 1476 1477 1478 1480 1481 1481 1482 1483 1485 1487 1490 1494 1495 1494 1495 1496 1495 1497 1497 1492 1492 1498 1500 1502 1504 1498 1486 1480 1481 1485 1485 1485 1486 1485 1483 1482 1484 1485 1482 1479 1482 1485 1486 1486 1486 1486 1485 1485 1487 1488 1488 1489 1489 1490 1491 1492